Voltar ao catálogo

STARLINK-36722

AtivoComunicaçõesVLEO
NORAD 67917·PAYLOAD·🇺🇸 United States

Lançado Feb 22, 2026 de Vandenberg Space Force Base

Loading…

Próximas Passagens (próximas 24 horas)

TLE

AtualizadoSource: CelesTrak SupGP

Época: Sep 14, 2026, 21:25 UTC

1 67917C 26036P   26257.89284722  .00035874  00000+0  13001-2 0  2571
2 67917  43.0004 256.4196 0001166 251.0071  43.4766 15.27542888    17

Acompanhe STARLINK-36722 em tempo real com AllMySat

Download on the App Store